Location: Colle Santa Colomba
(42.0333°N, 12.5667°E)
Time: 22:14:47
(UTC+00:00)

Cosmos 1939 Rocket - Pass Details

Date: 25 October 2021
Orbit: 532 x 583 km, 97.4° (Epoch: 05 December)

Event Time Altitude Azimuth Distance (km) Brightness Sun altitude
Rises 16:44:14 0° 173° (S) 2,695 6.4 -6.5°
Reaches altitude 10° 16:46:20 10° 176° (S) 1,815 5.6 -6.9°
Maximum altitude 16:50:14 66° 259° (W) 611 3.4 -7.6°
Drops below altitude 10° 16:54:15 10° 342° (NNW) 1,861 5.6 -8.3°
Sets 16:56:26 0° 346° (NNW) 2,771 6.5 -8.7°
